This demonstration page uses our WeatherBlox Daily Observations layout. Learn more.

Left ArrowRight Arrow

Hourly Observations for April 28, 2015

Temp ( °F °C ) Dew Point ( °F °C ) Humidity (%) Winds ( mph kmh ) Pressure ( in mb ) Visibility ( mi km ) Precip ( " mm )
12:51 am 00:51 Clear 61 16.1 38 3.3 43 43 S 10 17 29.99 1016 10 16 0.00 0.00
1:51 am 01:51 Clear 59 15 35 1.7 41 41 S 12 19 29.99 1016 10 16 0.00 0.00
2:51 am 02:51 Mostly Cloudy 56 13.3 36 2.2 47 47 ESE 7 11 30.01 1016 10 16 0.00 0.00
3:51 am 03:51 Clear 57 13.9 34 1.1 42 42 SE 12 19 30.03 1017 10 16 0.00 0.00
4:51 am 04:51 Clear 54 12.2 35 1.7 49 49 SE 7 11 30.06 1018 10 16 0.00 0.00
5:51 am 05:51 Sunny 53 11.7 35 1.7 51 51 ESE 7 11 30.08 1019 10 16 0.00 0.00
6:51 am 06:51 Sunny 56 13.3 36 2.2 47 47 ESE 9 15 30.11 1020 10 16 0.00 0.00
7:51 am 07:51 Sunny 59 15 36 2.2 42 42 SE 10 17 30.13 1020 10 16 0.00 0.00
8:51 am 08:51 Sunny 63 17.2 36 2.2 37 37 SE 12 19 30.12 1020 10 16 0.00 0.00
9:51 am 09:51 Sunny 65 18.3 35 1.7 33 33 S 16 26 30.11 1020 10 16 0.00 0.00
10:51 am 10:51 Sunny 68 20 34 1.1 28 28 S 9 15 30.09 1019 10 16 0.00 0.00
11:51 am 11:51 Sunny 72 22.2 34 1.1 25 25 SSE 13 20 30.05 1018 10 16 0.00 0.00
12:51 pm 12:51 Sunny 73 22.8 33 0.6 23 23 SSE 12 19 30.02 1017 10 16 0.00 0.00
1:51 pm 13:51 Sunny 75 23.9 33 0.6 22 22 ESE 9 15 29.99 1016 10 16 0.00 0.00
2:51 pm 14:51 Sunny 77 25 33 0.6 20 20 ESE 8 13 29.95 1014 10 16 0.00 0.00
3:51 pm 15:51 Sunny 77 25 32 0 19 19 VRB 7 11 29.93 1014 10 16 0.00 0.00
4:51 pm 16:51 Sunny 77 25 32 0 19 19 S 10 17 29.93 1014 10 16 0.00 0.00
5:51 pm 17:51 Mostly Cloudy 75 23.9 31 -0.6 20 20 SSE 7 11 29.93 1014 10 16 0.00 0.00
6:51 pm 18:51 Cloudy 74 23.3 31 -0.6 20 20 SSE 7 11 29.94 1014 10 16 0.00 0.00
7:51 pm 19:51 Mostly Cloudy 70 21.1 32 0 25 25 SSE 5 7 29.96 1015 10 16 0.00 0.00
8:51 pm 20:51 Mostly Cloudy 67 19.4 34 1.1 30 30 E 3 6 29.99 1016 10 16 0.00 0.00
9:51 pm 21:51 Clear 67 19.4 32 0 27 27 ESE 7 11 30.00 1016 10 16 0.00 0.00
10:51 pm 22:51 Clear 63 17.2 33 0.6 33 33 SE 8 13 30.00 1016 10 16 0.00 0.00
11:51 pm 23:51 Clear 59 15 33 0.6 38 38 SSE 7 11 30.01 1016 10 16 0.00 0.00

Powered by AerisWeather